Location: *
(53.1170°N, 16.1826°E)
Time: 08:03:34
(UTC+00:00)

Daily predictions for brighter satellites

Satellite Brightness Start Highest point End
(mag) Time Altitude Azimuth Time Altitude Azimuth Time Altitude Azimuth
ATLAS 2AS CENTAUR R/B 3.3 18:08:12 10° NW 18:15:50 66° SW 18:22:49 10° SSE
STARLINK-1234 4.0 18:17:13 10° W 18:20:07 36° SSW 18:23:01 10° SE
STARLINK-1209 4.1 18:17:42 10° W 18:20:34 35° SSW 18:23:27 10° SE
Cosmos 1610 Rocket 4.5 18:14:38 10° N 18:20:52 73° ENE 18:26:58 10° SSE
STARLINK-1233 3.7 18:18:03 10° W 18:21:03 43° SSW 18:24:04 10° SE
STARLINK-1212 3.7 18:18:31 10° W 18:21:31 43° SSW 18:24:31 10° SE
STARLINK-1105 3.7 18:18:57 10° W 18:21:57 43° SSW 18:24:58 10° SE
STARLINK-1244 3.7 18:17:56 10° W 18:22:04 75° SSW 18:26:14 10° ESE
STARLINK-1206 3.7 18:19:25 10° W 18:22:24 42° SSW 18:25:23 10° SE
STARLINK-1247 3.7 18:19:53 10° W 18:22:52 42° SSW 18:25:51 10° SE
ATLAS 5 CENTAUR R/B 2.3 18:19:14 10° S 18:22:59 32° ESE 18:27:10 10° ENE
STARLINK-1227 3.7 18:20:18 10° W 18:23:17 42° SSW 18:26:17 10° SE
COSMOS 2455 2.9 18:17:31 10° NW 18:23:36 84° NE 18:29:38 10° SE
STARLINK-1218 3.7 18:20:48 10° W 18:23:46 41° SSW 18:26:45 10° SE
STARLINK-1226 3.7 18:21:14 10° W 18:24:12 41° SSW 18:27:11 10° SE
STARLINK-1254 3.7 18:21:39 10° W 18:24:39 41° SSW 18:27:38 10° SE
STARLINK-1215 3.7 18:22:09 10° W 18:25:07 41° SSW 18:28:05 10° SE
H-2A R/B 2.2 18:20:08 10° SSE 18:25:18 79° WSW 18:30:21 10° NNW
STARLINK-1231 3.7 18:22:36 10° W 18:25:34 41° SSW 18:28:31 10° SE
Cosmos 1603 4.0 18:19:59 10° SW 18:25:36 76° WNW 18:31:15 10° NNE
STARLINK-1232 3.8 18:23:30 10° W 18:26:29 40° SSW 18:29:26 10° SE
STARLINK-1217 3.8 18:23:57 10° W 18:26:55 40° SSW 18:29:52 10° SE
STARLINK-1138 3.7 18:22:50 10° W 18:26:59 73° SSW 18:31:07 10° ESE
STARLINK-1208 3.8 18:24:22 10° W 18:27:21 40° SSW 18:30:20 10° SE
Abrixas rocket 3.6 18:25:18 10° WSW 18:27:46 24° SSW 18:30:14 10° SE
STARLINK-1229 3.8 18:24:51 10° W 18:27:49 39° SSW 18:30:46 10° SE
STARLINK-1271 3.8 18:25:18 10° W 18:28:16 39° SSW 18:31:13 10° SE
STARLINK-1270 3.8 18:25:46 10° W 18:28:43 39° SSW 18:31:39 10° SE
STARLINK-1154 3.8 18:26:13 10° W 18:29:10 39° SSW 18:32:06 10° SE
STARLINK-1197 3.8 18:27:08 10° W 18:30:04 38° SSW 18:33:00 10° SE
STARLINK-1189 3.8 18:27:34 10° W 18:30:30 38° SSW 18:33:25 10° SE
Cosmos 2251 Rocket 4.4 18:25:31 10° SW 18:30:49 58° WNW 18:36:10 10° NNE
STARLINK-1198 3.9 18:28:01 10° W 18:30:58 38° SSW 18:33:53 10° SE
STARLINK-1188 3.9 18:28:27 10° W 18:31:23 38° SSW 18:34:19 10° SE
STARLINK-1143 3.7 18:27:48 10° W 18:31:57 71° SSW 18:36:00 10° ESE
STARLINK-1235 4.2 18:29:09 10° W 18:32:02 33° SSW 18:34:54 10° SE
STARLINK-1187 4.0 18:29:33 10° W 18:32:29 35° SSW 18:35:24 10° SE
Cosmos 1140 Rocket 3.8 18:27:54 10° S 18:32:45 42° ESE 18:37:37 10° NE
STARLINK-1199 3.9 18:30:25 10° W 18:33:22 37° SSW 18:36:18 10° SE
STARLINK-1191 3.9 18:30:52 10° W 18:33:48 37° SSW 18:36:44 10° SE
STARLINK-1210 3.9 18:31:19 10° W 18:34:15 37° SSW 18:37:12 10° SE
Ariane Rocket 3.7 18:29:37 10° S 18:34:37 59° WSW 18:39:38 10° NNW
STARLINK-1221 3.9 18:31:46 10° W 18:34:42 36° SSW 18:37:38 10° SE
STARLINK-1219 3.9 18:32:14 10° W 18:35:09 36° SSW 18:38:06 10° SE
STARLINK-1222 3.9 18:32:40 10° W 18:35:36 36° SSW 18:38:31 10° SE
STARLINK-1211 4.0 18:33:08 10° W 18:36:04 36° SSW 18:38:58 10° SE
STARLINK-1214 4.0 18:33:35 10° W 18:36:30 36° SSW 18:39:23 10° SE
STARLINK-1241 3.7 18:32:49 10° W 18:36:57 68° SSW 18:40:49 12° ESE
STARLINK-1245 4.0 18:34:04 10° W 18:36:58 35° SSW 18:39:48 10° SE
STARLINK-1238 4.0 18:34:28 10° W 18:37:24 35° SSW 18:40:15 10° SE
STARLINK-1205 4.0 18:35:25 10° W 18:38:18 35° SSW 18:41:07 11° SE
ERBS 2.3 18:34:56 10° WNW 18:38:20 88° NNE 18:41:22 12° ESE
STARLINK-1204 4.0 18:35:53 10° W 18:38:46 34° SSW 18:41:33 11° SE
Meteor 1-16 Rocket 4.3 18:34:42 10° SSW 18:40:10 83° WNW 18:45:52 10° NNE
CZ-2C R/B 3.3 18:35:24 10° S 18:40:11 65° WSW 18:44:55 10° NNW
Cosmos 614 Rocket 3.9 18:35:24 10° SSW 18:40:36 73° ESE 18:45:48 10° NNE
STARLINK-1239 3.8 18:37:47 10° W 18:41:55 66° SSW 18:45:35 13° ESE
ATLAS CENTAUR R/B 2.8 18:39:08 10° NNW 18:42:31 25° NNE 18:45:44 10° E
STARLINK-29 4.0 18:42:04 10° SSW 18:44:49 26° SSE 18:47:14 12° E
Spot 2 Rocket 4.4 18:42:04 11° ESE 18:46:27 34° ENE 18:51:01 10° N
Cosmos 1190 Rocket 4.0 18:41:26 10° S 18:46:39 61° ESE 18:51:51 10° NNE
SJ-6B 3.3 18:42:34 10° S 18:46:41 67° WSW 18:50:49 10° NNW
STARLINK-1240 3.8 18:42:46 10° W 18:46:53 64° SSW 18:50:22 14° ESE
Resurs 1-3 3.6 18:42:41 10° SSE 18:47:02 69° ENE 18:51:25 10° N
Aureole 1 Rocket 3.9 18:40:48 10° SSW 18:47:54 75° ESE 18:53:20 10° NNE
Cosmos 1300 3.3 18:45:10 10° SSE 18:48:39 35° E 18:52:09 10° NNE
SL-24 R/B 3.9 18:46:19 10° NNE 18:50:21 54° E 18:54:01 10° S
STARLINK-1216 3.8 18:47:44 10° W 18:51:50 61° SSW 18:55:08 15° ESE
STARLINK-60 3.3 18:49:06 10° SW 18:52:17 47° SSE 18:55:08 12° E
CZ-2C R/B 3.8 18:48:28 10° NNE 18:53:08 58° ESE 18:57:41 10° S
Terra 3.8 18:51:13 10° E 18:53:55 15° NE 18:56:37 10° NNE
SPOT 5 4.4 18:52:27 11° E 18:54:56 17° NE 18:57:42 10° NNE
STARLINK-1237 3.9 18:52:41 10° W 18:56:47 58° SSW 18:59:54 16° SE
Cosmos 468 Rocket 4.3 18:53:09 10° NNW 18:58:15 53° ENE 19:02:21 15° SE
Cosmos 192 4.5 18:55:18 10° NNW 19:00:15 63° ENE 19:04:21 15° SE
Cosmos 2058 Rocket 3.1 18:56:35 10° S 19:01:06 83° E 19:05:38 10° NNE
STARLINK-1202 3.9 18:57:42 10° W 19:01:46 56° SSW 19:04:42 18° SE
SL-08 RB Rocket 4.4 18:59:14 10° S 19:03:44 57° W 19:08:20 10° NNW
Cosmos 1726 Rocket 4.1 18:59:25 10° SSW 19:03:49 65° WNW 19:08:16 10° N
DMSP B5D2-2 4.1 18:59:05 10° NNE 19:04:16 58° E 19:09:25 10° S
Cosmos 921 Rocket 3.6 19:00:36 10° NNW 19:04:42 54° WSW 19:08:47 10° S
Cosmos 2341 Rocket 4.1 18:59:01 10° N 19:05:27 84° E 19:11:52 10° SSE
SL-4 R/B 1.6 19:05:16 10° WSW 19:08:37 59° SSE 19:10:57 19° E
Cosmos 1726 4.5 19:05:23 10° SW 19:08:38 28° WNW 19:11:55 10° N
CZ-4C R/B 3.4 19:03:39 10° NW 19:10:01 49° NNE 19:16:38 14° E
ERS-1 Rocket 4.1 19:07:01 16° ESE 19:10:04 29° ENE 19:14:22 10° N
Cosmos 1408 4.0 19:08:14 10° NNE 19:11:16 24° ENE 19:12:35 19° E
STARLINK-1246 4.0 19:07:39 10° W 19:11:41 51° SSW 19:14:15 20° SE
RESURS DK-1 3.1 19:07:56 10° NNW 19:11:54 41° NE 19:14:21 20° ESE
Cosmos 407 Rocket 3.6 19:07:06 10° SSW 19:12:15 79° WNW 19:17:25 10° NNE
Cosmos 1908 4.3 19:08:30 10° SSW 19:12:15 48° WNW 19:16:04 10° N
Cosmos 1340 Rocket 3.0 19:08:39 10° SSW 19:12:42 75° WNW 19:16:44 10° N
Cosmos 2228 4.3 19:10:40 10° SW 19:14:48 44° WNW 19:19:01 10° N
Cosmos 676 Rocket 4.0 19:10:38 10° S 19:15:50 65° ESE 19:21:03 10° NNE
COSMOS 2406 4.2 19:13:01 15° SE 19:16:09 24° ESE 19:20:38 10° NE
Cosmos 2218 Rocket 4.0 19:10:27 10° N 19:16:39 67° ENE 19:22:17 13° SSE
STARLINK-1224 4.1 19:12:40 10° W 19:16:41 49° SSW 19:19:04 22° SE
Cosmos 2058 3.0 19:14:25 10° N 19:18:29 58° ENE 19:21:10 20° SSE
STARLINK-1203 4.2 19:14:48 10° W 19:18:50 46° SSW 19:21:13 22° SE
Cosmos 220 Rocket 4.0 19:14:33 10° NNW 19:18:55 85° WSW 19:22:11 17° SSE
Cosmos 1943 4.5 19:14:12 10° WSW 19:19:38 45° NW 19:25:07 10° NNE
MOS 1 Rocket 3.6 19:15:26 10° NNE 19:20:51 74° ESE 19:26:18 10° S
STARLINK-1225 4.2 19:17:39 10° W 19:21:39 46° SSW 19:23:51 23° SE
Resurs 01 Rocket 1.7 19:17:43 11° SSE 19:21:57 80° WSW 19:26:25 10° NNW
CZ-2C R/B 2.5 19:17:00 10° NNE 19:22:11 69° ESE 19:27:23 10° S
STARLINK-52 3.4 19:22:02 10° SW 19:25:04 41° SSE 19:25:57 32° ESE
STARLINK-1230 4.2 19:22:38 10° W 19:26:35 44° SSW 19:28:37 24° SSE
BREEZE M DEB (TANK) 3.9 19:24:25 10° SSW 19:27:59 35° SE 19:37:17 10° ENE
Cosmos 1812 Rocket 3.7 19:25:20 16° SSE 19:28:34 50° E 19:32:46 10° NNE
SL-8 Rocket 4.0 19:22:36 10° N 19:28:59 90° W 19:35:13 11° S
Cosmos 2369 4.2 19:23:46 10° NNW 19:29:16 48° NE 19:32:37 22° ESE
Cosmos 1697 Rocket 3.2 19:23:50 10° NNW 19:29:22 49° NE 19:32:44 23° ESE
Cosmos 2151 3.7 19:25:32 10° N 19:29:26 35° ENE 19:30:59 26° ESE
SPOT 3 Rocket 4.5 19:24:48 10° S 19:29:49 47° W 19:34:51 10° NNW
Cosmos 864 Rocket 4.4 19:24:20 10° N 19:30:35 76° ENE 19:35:37 16° SSE
STARLINK-1243 4.3 19:27:36 10° W 19:31:31 42° SSW 19:33:24 25° SSE
SL-24 R/B - RUBIN 2 4.5 19:26:14 10° SW 19:32:05 81° NW 19:38:38 10° NE
FALCON 9 DEB 3.4 19:30:02 10° SW 19:33:25 48° SSE 19:34:33 33° ESE
Iridium 2 3.6 19:33:27 17° S 19:36:18 76° E 19:40:08 10° N
STARLINK-1236 4.4 19:32:36 10° W 19:36:29 39° SSW 19:38:11 26° SSE
Cosmos 2181 Rocket 3.9 19:31:07 10° S 19:37:19 77° E 19:43:30 10° NNE
Cosmos 1954 Rocket 3.9 19:32:12 10° SSW 19:37:27 88° ESE 19:42:41 10° NNE
USA 245 4.5 19:34:10 19° SSE 19:38:38 77° ENE 19:45:09 10° NNW
Cosmos 2366 rocket 4.0 19:36:56 10° N 19:43:08 88° WSW 19:48:11 16° S
Cosmos 1076 Rocket 3.5 19:39:18 10° NNW 19:43:36 80° W 19:46:20 22° S
Cosmos 1741 Rocket 4.3 19:41:05 14° S 19:45:27 47° ESE 19:50:33 10° NE
Meteor 2-1 Rocket 4.3 19:41:06 12° S 19:46:28 62° E 19:52:20 10° NNE
Cosmos 1656 3.7 19:42:27 10° NNW 19:48:11 87° WSW 19:51:23 27° SSE
Cosmos 1763 Rocket 3.5 19:43:21 10° NNW 19:48:35 82° WSW 19:51:29 27° SSE
Landsat 7 3.8 19:46:17 28° SSE 19:48:48 74° ENE 19:53:34 10° NNW
SL-16 R/B 3.9 19:46:06 10° NNW 19:50:33 23° NNE 19:54:20 12° ENE
Cosmos 2360 Rocket 4.4 19:47:12 10° NNW 19:50:40 16° NNE 19:54:06 10° ENE
Cosmos 540 Rocket 3.6 19:47:07 10° NNW 19:52:16 61° ENE 19:54:30 33° SE
SPOT 1/Viking Rocket 3.5 19:50:06 28° SSE 19:52:54 73° ENE 19:58:08 10° NNW
Cosmos 2208 Rocket 4.0 19:47:56 10° NNW 19:53:09 69° ENE 19:55:32 32° SE
Cosmos 1455 2.5 19:56:32 42° ESE 19:56:46 43° E 20:00:25 10° NNE
Iridium 4 Rocket 2.9 19:52:42 10° N 19:56:56 83° W 19:59:06 28° S
Cosmos 2322 Rocket 4.0 19:53:11 10° NNW 19:57:32 22° NNE 20:01:15 12° ENE
USA 234 3.7 19:51:38 10° ENE 19:57:34 35° SE 20:03:28 10° SSW
Nadezhda 3 Rocket 4.4 19:56:45 29° SE 19:59:23 43° E 20:05:15 10° NNE
Cosmos 1980 Rocket 2.7 19:54:05 10° NNW 19:59:32 47° NE 20:02:02 29° ESE
Cosmos 1892 3.0 19:56:37 10° NNW 20:00:30 65° W 20:02:12 31° S
Cosmos 1814 Rocket 4.0 19:58:20 10° NNW 20:03:43 72° ENE 20:05:55 36° SE
Cosmos 1825 2.2 20:01:22 10° N 20:05:08 60° ENE 20:05:39 54° ESE
ATLAS 5 CENTAUR R/B 2.4 20:03:04 10° WSW 20:07:21 55° NW 20:12:19 10° NE
Cosmos-2242 3.1 20:08:41 47° SE 20:09:31 56° E 20:13:48 10° NNE
Meteor 2-3 Rocket 4.2 20:05:36 10° N 20:11:10 47° ENE 20:13:03 35° ESE
ASTEX 1 4.2 20:10:30 31° E 20:11:27 34° ENE 20:15:53 10° N
Cosmos 489 Rocket 4.5 20:07:06 10° NNW 20:13:20 78° WSW 20:16:28 31° SSE
ERBS 4.1 20:11:42 10° W 20:14:18 21° SW 20:14:20 21° SW
Cosmos 1356 Rocket 3.4 20:13:46 49° SSE 20:14:44 68° E 20:18:57 10° NNE
SAR-Lupe-2 4.3 20:15:42 10° N 20:19:12 53° WNW 20:21:14 22° SW
Cosmos 2084 4.3 20:15:05 10° NW 20:19:22 44° NNE 20:20:49 32° ENE
STARLINK-29 3.8 20:17:29 10° WSW 20:19:45 42° WSW 20:19:45 42° WSW
Cosmos 2344 4.3 20:12:06 10° NW 20:20:59 75° NE 20:28:34 26° ESE
IGS 5A 3.9 20:20:27 36° SSW 20:21:53 57° W 20:26:00 10° NNW
ATLAS CENTAUR R/B 0.9 20:17:57 10° NW 20:21:54 83° SW 20:22:10 75° SSE
SWARM A 4.2 20:23:45 76° W 20:23:46 76° W 20:27:07 10° N
Cosmos 1821 Rocket 4.0 20:17:23 10° N 20:23:49 81° E 20:26:40 36° SSE
USA 32 4.1 20:18:52 10° N 20:24:08 79° W 20:26:24 35° S
Cosmos 1934 Rocket 4.2 20:18:44 10° N 20:24:54 55° ENE 20:26:55 39° SE
Spot 2 Rocket 4.3 20:22:15 21° SSW 20:25:20 46° W 20:30:15 10° NNW
Cosmos 2360 4.1 20:21:39 10° NNW 20:27:23 83° ENE 20:29:15 45° SE
Cosmos 841 Rocket 3.6 20:22:29 10° NNW 20:27:45 71° WSW 20:29:32 41° S
STARLINK-60 3.6 20:25:14 10° W 20:27:48 51° W 20:27:48 51° W
Cosmos 1850 Rocket 4.0 20:24:21 11° SSW 20:29:25 83° WNW 20:34:38 10° NNE
Mayak 0.4 20:26:14 10° NE 20:28:24 21° ENE 20:28:24 21° ENE
Cosmos 2278 3.6 20:25:03 10° NNW 20:30:45 83° ENE 20:32:29 47° SE
Terra 1.7 20:29:53 54° SE 20:30:54 75° ENE 20:35:41 10° NNW
SPOT 5 2.5 20:31:40 57° S 20:32:30 81° WSW 20:36:52 10° NNW
Cosmos 2082 Rocket 2.9 20:34:09 34° E 20:34:09 34° E 20:38:38 10° NE
Meteor 2-10 Rocket 3.5 20:33:52 37° S 20:36:04 87° ESE 20:41:36 10° NNE
Cosmos 1833 Rocket 2.7 20:39:02 50° SSE 20:40:00 57° ESE 20:45:32 10° NE
CARTOSAT-1 3.8 20:39:31 52° SSW 20:40:20 64° WSW 20:44:40 10° NNW
Cosmos 1605 Rocket 4.3 20:37:10 10° N 20:43:10 51° ENE 20:44:41 42° ESE
Cosmos 1408 3.9 20:43:02 10° NNW 20:46:23 34° W 20:46:55 32° WSW
SL-4 R/B 3.0 20:44:37 10° W 20:46:33 31° W 20:46:33 31° W
ERS-1 Rocket 3.5 20:47:01 37° SSW 20:48:38 53° W 20:53:35 10° NNW
RESURS DK-1 3.6 20:46:10 10° NW 20:49:51 31° WSW 20:50:15 30° WSW
Cosmos 1766 Rocket 4.1 20:47:38 10° NNW 20:52:01 53° W 20:52:50 46° SW
Okean 3 Rocket 4.4 20:49:19 10° NNW 20:53:31 44° W 20:54:33 37° SW
BREEZE M DEB (TANK) 4.4 20:50:43 10° WSW 20:53:25 25° WSW 20:53:25 25° WSW
CZ-4C R/B 2.9 20:52:10 10° NW 20:59:08 75° SW 21:01:49 45° SSE
Resurs 01 Rocket 4.4 20:57:35 10° WSW 20:59:12 12° W 21:00:50 10° WNW
ALOS 2 4.2 20:59:27 23° ENE 20:59:32 23° ENE 21:03:00 10° N
COSMOS 2406 3.3 20:54:52 13° SW 20:59:55 74° WNW 21:05:41 10° NNE
Cosmos 1500 Rocket 3.7 20:57:54 10° N 21:01:56 64° NE 21:01:56 64° NE
Meteor 1-27 4.3 21:05:11 58° SE 21:05:47 62° E 21:11:34 10° NNE
Cosmos 2151 4.5 21:03:00 10° NNW 21:06:38 29° W 21:07:34 26° WSW
Cosmos 1346 Rocket 4.5 21:04:22 10° N 21:07:11 25° NE 21:07:11 25° NE
Cosmos 1340 4.2 21:05:57 10° N 21:08:27 28° NE 21:08:27 28° NE
Cosmos 1697 Rocket 3.5 21:08:02 10° NW 21:13:16 39° WSW 21:14:29 35° SW
Spot 4 4.1 21:14:41 56° ENE 21:14:43 56° ENE 21:19:26 10° N
Cosmos 1607 4.1 21:28:01 51° E 21:28:01 51° E 21:33:21 10° NE
Cosmos 1455 4.4 21:31:26 19° W 21:32:35 21° WNW 21:35:36 10° NNW
Cosmos 1743 Rocket 4.0 21:29:39 10° NNW 21:33:44 58° WNW 21:33:44 58° WNW
Cosmos 1400 Rocket 4.3 21:36:25 30° NNE 21:36:25 30° NNE 21:38:36 10° NNE
SL-16 R/B 2.2 21:29:57 10° NNW 21:35:40 72° NE 21:36:11 67° E
Cosmos 2360 Rocket 3.1 21:30:57 10° NNW 21:36:17 41° NE 21:37:32 36° ENE
Thor Agena Rocket 3.5 21:31:34 10° NNE 21:36:20 71° ENE 21:36:20 71° ENE
NOSS 2-1 (E) 4.3 21:35:30 10° NW 21:40:20 70° NE 21:41:13 59° E
USA 234 3.1 21:34:34 10° ENE 21:41:09 83° SSE 21:47:43 10° WSW
Cosmos 2322 Rocket 2.2 21:36:58 10° NNW 21:42:38 69° NE 21:43:04 66° E
Cosmos 1980 Rocket 2.9 21:38:17 10° NW 21:43:30 40° WSW 21:43:48 40° WSW
Cosmos 783 Rocket 4.5 21:39:24 10° NNW 21:44:45 78° ENE 21:44:45 78° ENE
Cosmos 2221 3.1 21:46:37 57° NNW 21:46:37 57° NNW 21:50:15 10° N
ASTEX 1 4.3 21:50:00 39° W 21:50:24 40° W 21:55:04 10° NNW
Cosmos 1459 Rocket 4.1 21:44:39 10° N 21:50:59 61° ENE 21:51:40 58° ESE
ATLAS 5 CENTAUR R/B 3.9 21:48:56 10° WNW 21:53:00 28° N 21:57:36 10° NE
Cosmos 2333 Rocket 3.7 21:53:10 10° NNW 21:58:07 30° NE 22:00:26 22° ENE
Mayak -0.1 22:01:30 10° N 22:04:58 40° NW 22:04:58 40° NW
Cosmos 1727 Rocket 3.8 22:05:51 76° S 22:06:23 87° E 22:12:46 10° N
Nimbus 7 Rocket 4.4 22:02:00 10° NNE 22:07:44 64° E 22:07:44 64° E
Terra 3.8 22:08:45 18° W 22:09:13 18° W 22:12:29 10° NW
Cosmos 1666 Rocket 4.4 22:05:05 10° N 22:08:19 49° N 22:08:19 49° N
Cosmos 2016 Rocket 4.1 22:04:49 10° N 22:11:08 61° ENE 22:11:42 58° E
Cosmos 1725 Rocket 4.3 22:06:04 10° N 22:12:15 52° ENE 22:12:55 50° E
Cosmos 1538 Rocket 4.3 22:07:19 10° NNW 22:12:31 62° NE 22:12:31 62° NE
Cosmos 773 Rocket 4.1 22:08:50 10° NNW 22:13:37 74° N 22:13:37 74° N
Sich 1 3.9 22:11:51 10° NNW 22:15:12 48° NW 22:15:12 48° NW
Cosmos 1241 Rocket 4.3 22:10:32 10° NW 22:16:49 82° SW 22:17:01 80° SSW
Cosmos 2082 Rocket 2.8 22:15:56 42° W 22:17:27 54° NW 22:23:02 10° NNE
Cosmos 1802 Rocket 3.8 22:11:39 10° N 22:17:53 76° ENE 22:18:13 74° ESE
Cosmos 2100 Rocket 3.8 22:14:02 10° NNW 22:20:17 84° W 22:20:40 79° SSW
Cosmos 1486 Rocket 4.4 22:22:40 56° WNW 22:22:56 57° WNW 22:28:11 10° NNE
Cosmos 1833 Rocket 4.0 22:20:38 18° WSW 22:24:13 37° NW 22:29:27 10° NNE
Cosmos 968 Rocket 3.7 22:25:40 69° NW 22:25:40 69° NW 22:30:43 10° NNE
Cosmos 2123 Rocket 4.4 22:25:55 47° E 22:25:56 47° E 22:31:49 10° NNE
Cosmos 2173 Rocket 3.8 22:19:55 10° NNW 22:26:03 82° W 22:26:16 80° SW
Cosmos 1315 Rocket 4.3 22:31:48 36° NNE 22:31:48 36° NNE 22:34:18 10° NNE
Cosmos 2219 Rocket 3.1 22:28:06 10° NNW 22:33:24 41° NE 22:34:42 36° ENE
ALOS 2 3.7 22:36:50 40° NW 22:36:50 40° NW 22:39:55 10° NNW
Cosmos 44 4.1 22:47:53 42° N 22:47:53 42° N 22:51:17 10° NE
CZ-4C R/B 4.2 22:41:27 10° WNW 22:46:59 24° WSW 22:46:59 24° WSW
Cosmos 2237 4.3 22:46:32 10° NW 22:51:39 67° WNW 22:51:39 67° WNW
Cosmos 1151 Rocket 4.1 22:55:27 42° NNE 22:55:27 42° NNE 22:58:21 10° NNE
Cosmos 1000 Rocket 4.4 22:56:39 72° WSW 22:57:04 75° WNW 23:03:24 10° N
Cosmos 1633 Rocket 4.4 22:53:19 10° NNW 22:56:12 34° NW 22:56:12 34° NW
Cosmos 2322 3.7 22:53:33 10° NNW 22:59:14 79° NE 22:59:14 79° NE
COSMOS 2428 3.1 22:57:16 10° NNW 23:02:54 57° NE 23:03:37 53° E
Cosmos 2333 4.2 22:58:21 10° NNW 23:03:49 78° NNE 23:03:49 78° NNE
Cosmos 724 4.2 23:06:36 80° NE 23:06:36 80° NE 23:12:06 10° NE
Meteor 1-14 Rocket 4.3 23:01:47 10° N 23:07:47 71° ENE 23:08:00 71° E
Cosmos 839 Rocket 3.9 23:14:56 77° SSE 23:15:10 78° SE 23:22:16 10° NE
Meteor 1-20 Rocket 4.3 23:11:34 10° NNW 23:16:59 68° WNW 23:16:59 68° WNW
SL-16 R/B 3.8 23:14:44 10° NW 23:18:02 23° W 23:18:02 23° W
Meteor 2-20 4.3 23:19:36 75° ESE 23:19:49 76° E 23:26:00 10° NNE
Cosmos 2360 Rocket 2.9 23:15:01 10° NW 23:19:17 43° WNW 23:19:17 43° WNW
CZ-2D R/B 4.1 23:17:09 10° NE 23:20:51 18° E 23:21:40 18° E
SL-16 R/B 4.4 23:16:55 10° NNW 23:21:22 23° NNE 23:25:49 10° E
Helios 1B rocket 3.7 23:19:30 10° NNE 23:22:09 39° NNE 23:22:09 39° NNE
USA 234 3.5 23:17:39 10° ENE 23:24:07 66° N 23:30:36 10° W
Cosmos 2322 Rocket 3.7 23:21:38 10° NW 23:24:52 24° W 23:24:52 24° W
Cosmos 1869 Rocket 4.4 23:27:08 10° N 23:30:33 50° N 23:30:33 50° N
Cosmos 923 Rocket 4.4 23:28:38 10° NNW 23:32:50 55° NW 23:32:50 55° NW
ATLAS 5 CENTAUR R/B 3.8 23:34:28 10° NW 23:39:01 31° NNE 23:44:14 10° E
MOS 1-B Rocket 4.4 23:33:02 10° N 23:39:06 61° WNW 23:40:22 52° WSW
Cosmos 1833 4.1 23:41:33 81° E 23:41:33 81° E 23:47:12 10° NNE
Cosmos 2333 Rocket 2.2 23:37:18 10° NW 23:42:26 70° WNW 23:42:26 70° WNW
Cosmos 2237 Rocket 2.9 23:38:35 10° NNW 23:44:08 50° NE 23:46:25 32° ESE
SME Rocket 4.3 23:42:55 10° N 23:46:10 35° NW 23:46:10 35° NW
Cosmos 2233 Rocket 4.1 23:41:33 10° NNW 23:47:43 59° W 23:47:50 58° W
MOZ.5/SAFIR/RUBIN 5/SL-8 4.3 23:48:43 53° ENE 23:48:46 53° ENE 23:53:26 10° N
Cosmos 1680 Rocket 3.9 23:44:55 10° NNW 23:49:10 55° WNW 23:49:10 55° WNW
SL-16 R/B 2.9 23:48:42 41° ESE 23:50:42 59° ENE 23:56:49 10° NNW
Lacrosse 5 rocket 3.4 23:54:19 20° ENE 23:54:19 20° ENE 23:55:39 10° ENE
Cosmos 1072 Rocket 4.5 23:46:14 10° N 23:52:29 76° E 23:53:26 63° SE
Cosmos 44 Rocket 3.6 23:53:59 60° N 23:53:59 60° N 23:58:11 10° NE
PSLV R/B 4.1 23:49:08 10° NNE 23:52:52 59° N 23:52:52 59° N
Cosmos 1536 4.3 23:50:17 10° N 23:53:29 33° NE 23:53:29 33° NE
